Погода в Маннаре

Индия     10°04′56″N   77°03′38″E
темп.,
°C
ветер,
м/с
пор.,
м/с
влажн.,
%
обл.,
%
осадки,
мм/ч
давл.,
гПа
погр.,
м
14 апреля, ср
ср1423:30+20всв2293100 5.1 101544
02:30+19всв219389 0.0 101227
05:30+19всв11925 0.1 101312
08:30+24ююв11745 0.0 1015422
11:30+27юз126032 0.5 10131233
14:30+25зсз1176100 6.8 1011420
17:30+21зсз1397100 15.3 1011172
20:30+20ссв1196100 9.7 101460
15 апреля, чт
чт1523:30+19всв2193100 12.6 101437
02:30+19ссз119295 0.1 101215
05:30+18св119386 0.1 101317
08:30+23юз017448 0.1 1015309
11:30+27з225972 1.1 10141206
14:30+25з227496 3.4 1011698
17:30+22зсз139252 10.6 1011204
20:30+20св1194100 6.1 101313
16 апреля, пт
пт1623:30+19св1194100 10.2 101417
02:30+19св119666 4.2 101239
05:30+19всв119299 4.3 101223
08:30+22ссз018688 0.0 101496
11:30+26ююз116488 0.9 1013970
14:30+26сз1173100 5.3 1010614
17:30+21ссз119098 12.5 101119
20:30+20всв1192100 1.6 101414
17 апреля, сб
сб1723:30+19ссв1191100 1.8 101413
02:30+19с119855 0.0 101223
05:30+19ссв119747 0.6 101424
08:30+23з118294 0.0 1015343
11:30+26з217096 1.4 1014849
14:30+26зсз226999 3.8 1012891
17:30+23з2285100 7.0 1012317
20:30+21ссз1195100 6.8 101523
18 апреля, вс
вс1823:30+20ссв1194100 10.9 101713
02:30+20сз1198100 0.9 101488
05:30+20зсз1198100 1.0 101536
08:30+22з1288100 0.0 1017356
11:30+26зюз3269100 0.3 10161059
14:30+25з228095 2.5 1013716
17:30+23з238875 3.5 1013464
20:30+20зсз139758 0.3 1016145